Regional Weather Roundup
Issued by NWS

Home | Current Version | Previous Version | Text Only | Print | Product List | Glossary Off
Versions: 1 2 3 4 5 6 7 8 9 10 11 12 13 14 15 16 17 18 19 20 21 22 23 24 25 26 27 28 29 30 31 32 33 34 35 36 37 38 39 40 41 42 43 44 45 46 47 48 49 50

000
ASUS43 KIND 221109
RWRIN

WEATHER ROUNDUP FOR INDIANA
NATIONAL WEATHER SERVICE INDIANAPOLIS IN
700 AM EDT FRI MAY 22 2015

NOTE: "FAIR" INDICATES FEW OR NO CLOUDS BELOW 12,000 FEET WITH NO
SIGNIFICANT WEATHER AND/OR OBSTRUCTIONS TO VISIBILITY.

* - STATION DOES NOT REPORT WEATHER SUCH AS PRECIPITATION OR FOG.

+ - STATION NOT QUALITY CONTROLLED BY THE NATIONAL WEATHER SERVICE.
    USE DATA WITH CAUTION...ESPECIALLY DEWPOINT AND RELATIVE
    HUMIDITY OBSERVATIONS.

INZ001>003-010>013-019-020-221200-
NORTHWEST INDIANA

CITY           SKY/WX    TMP DP  RH WIND       PRES   REMARKS
GARY /AIRPORT/ CLEAR     48  45  87 VRB3      30.12R
KNOX *+        CLEAR     45  41  87 SW3       30.11R
LA PORTE +     CLEAR     47  42  82 CALM      30.12R
MICHIGAN CITY+ CLEAR     43  43 100 CALM      30.12R
MONTICELLO +   CLEAR     47  43  88 CALM      30.12R
RENSSELAER +   CLEAR     48  45  87 SW5       30.12R
VALPARAISO     CLEAR     49  42  77 W3        30.12R

$$

LMZ046-743>745-221200-
SOUTHERN LAKE MICHIGAN

STATION/POSITION TIME  TEMP    WIND        PRES    WAVE
                       AIR SEA DIR/SP/G            HT
                 (UTC) (F)     (DEG/KT/KT) (MB)    (FT)
BURNS HARBOR     1100   52      50/  6/  8 1020.0R
MICHIGAN CITY    1100   50      20/  7/  8   N/A
5NW MICH CITY    1100   49 51   30/  8/ 12   N/A     1

$$

INZ004-005-014>016-021>024-221200-
NORTH CENTRAL INDIANA

CITY           SKY/WX    TMP DP  RH WIND       PRES   REMARKS
ELKHART        CLEAR     48  45  87 N5        30.12
GOSHEN         CLEAR     47  41  80 N3        30.11R
LOGANSPORT +   CLEAR     45  39  81 CALM      30.14R
PERU/GRISSOM   CLEAR     48  42  79 NW6       30.12R
ROCHESTER +    CLEAR     46  43  87 CALM      30.12R
SOUTH BEND     CLEAR     47  40  76 CALM      30.12R
WARSAW +       CLEAR     45  41  87 CALM      30.11R

$$

INZ006>009-017-018-025>027-221200-
NORTHEAST INDIANA

CITY           SKY/WX    TMP DP  RH WIND       PRES   REMARKS
ANGOLA *+      CLEAR     48  39  71 CALM      30.11R
AUBURN +       PTCLDY    45  43  93 NW3       30.11R
FORT WAYNE     PTCLDY    48  41  76 SW8       30.12R
HUNTINGTON +   PTCLDY    45  40  83 CALM      30.12R

$$

INZ028-029-035-036-043>045-051>053-221200-
WEST CENTRAL INDIANA

CITY           SKY/WX    TMP DP  RH WIND       PRES   REMARKS
CRAWFORDSVL +  CLEAR     44  38  78 SW7       30.15R
GREENCASTLE +  CLEAR     45  37  76 S5        30.17R
LAFAYETTE      CLEAR     47  43  86 SW5       30.13R
TERRE HAUTE    CLEAR     50  42  74 SW7       30.17R

$$

INZ030>032-037>040-046>048-054>057-064-065-221200-
CENTRAL INDIANA

CITY           SKY/WX    TMP DP  RH WIND       PRES   REMARKS
CP ATTERBURY + CLEAR     45  41  87 SW8       30.18R
COLUMBUS       CLEAR     45  39  81 S5        30.19
FISHERS *+     CLEAR     45  45 100 SW7       30.16R
FRANKFORT +    CLEAR     48  43  84 S7        30.15R
GREENWOOD *+   CLEAR     48  39  71 SW7       30.17
INDIANAPOLIS   PTCLDY    48  41  76 SW10      30.14R
-EAGLE CREEK   PTCLDY    47  42  83 SW5       30.15R
KOKOMO *+      CLEAR     50  43  76 W7        30.13R
MARION +       PTCLDY    43  38  84 S6        30.14R
MT COMFORT *+  CLEAR     48  37  66 SW6       30.16R
SHELBYVILLE    CLEAR     48  41  76 SW7       30.16R
ZIONSVILLE +   CLEAR     48  40  74 SW6       30.15R

$$

INZ033-034-041-042-049-050-058-059-221200-
EAST CENTRAL INDIANA

CITY           SKY/WX    TMP DP  RH WIND       PRES   REMARKS
MUNCIE         CLEAR     49  41  74 SW7       30.14R

$$

INZ060-061-067>069-081>083-085>088-221200-
SOUTHWEST INDIANA

CITY           SKY/WX    TMP DP  RH WIND       PRES   REMARKS
EVANSVILLE     CLEAR     45  42  89 SW5       30.25R
HUNTINGBURG *+ CLEAR     45  39  81 S3        30.24R
WASHINGTON +   CLEAR     48  42  77 SW6       30.21R

$$

INZ062-063-066-070>080-084-089>092-221200-
SOUTH CENTRAL AND SOUTHEAST INDIANA

CITY           SKY/WX    TMP DP  RH WIND       PRES   REMARKS
BLOOMINGTON    CLEAR     50  42  74 W8        30.19R
MADISON *+     CLEAR     43  41  93 CALM      30.23R
NORTH VERNON + CLEAR     43  43 100 S3        30.21R FOG
SEYMOUR +      CLEAR     46  41  81 SW6       30.20R

$$




USA.gov is the U.S. government's official web portal to all federal, state and local government web resources and services.